Location: Tucson
(32.2217°N, 110.9265°W)
Time: 03:06:38
(UTC-07:00)

Tiros 1 - Pass Details

Date: 27 October 2021
Orbit: 630 x 663 km, 48.4° (Epoch: 07 December)

Event Time Altitude Azimuth Distance (km) Brightness Sun altitude
Rises 14:52:40 0° 315° (NW) 2,959 10.6 29.9°
Reaches altitude 10° 14:55:08 10° 322° (NW) 2,041 9.8 29.5°
Maximum altitude 14:59:35 42° 33° (NNE) 919 7.8 28.8°
Drops below altitude 10° 15:03:59 10° 105° (ESE) 2,014 9.5 28.1°
Sets 15:06:24 0° 112° (ESE) 2,915 10.3 27.7°
